Torna al catalogo

SL-8 R/B

AttivoLEO
NORAD 11304·ROCKET BODY·🇷🇺 Russia

Lanciato Mar 15, 1979 da Plesetsk Cosmodrome

Loading…

Prossimi Passaggi (prossime 24 ore)

TLE

AggiornatoSource: Space-Track

Epoca: Sep 14, 2026, 07:20 UTC

1 11304U 79024J   26257.30621253 -.00000106  00000-0 -80611-3 0  9993
2 11304  74.0370 233.7424 0145365 254.5779 103.9160 12.24254239122773

Traccia SL-8 R/B in tempo reale con AllMySat

Download on the App Store